Location: Dampala
(41.9667°N, 44.5667°E)
Time: 03:46:51
(UTC+00:00)

Daily predictions for brighter satellites

Satellite Brightness Start Highest point End
(mag) Time Altitude Azimuth Time Altitude Azimuth Time Altitude Azimuth
ATLAS 2AS CENTAUR R/B 3.7 00:12:27 41° NE 00:12:27 41° NE 00:16:48 10° NE
Lacrosse 4 Rocket 4.2 00:37:20 16° ENE 00:37:20 16° ENE 00:38:50 10° E
Cosmos 2263 Rocket 3.7 00:36:29 31° NE 00:37:29 33° NE 00:42:30 10° ESE
Cosmos 2285 Rocket 4.4 00:41:38 60° ENE 00:41:38 60° ENE 00:47:55 10° SSE
Cosmos 2227 Rocket 3.8 00:50:06 25° SSE 00:50:06 25° SSE 00:52:22 10° SSE
S3M 4.3 01:01:41 10° N 01:07:54 65° E 01:14:00 10° SSE
Cosmos 1417 Rocket 4.4 01:05:35 10° N 01:11:43 82° E 01:17:51 10° S
IRAS Rocket 4.4 01:06:18 10° NNE 01:11:49 68° ESE 01:15:43 20° S
Cosmos 2219 3.4 01:11:44 52° N 01:13:04 70° ENE 01:18:41 10° SSE
DELTA 2 R/B (1) 3.7 01:14:28 68° SSE 01:14:28 68° SSE 01:19:47 10° E
Cosmos 1484 Rocket 4.3 01:17:48 10° NNE 01:20:59 32° E 01:21:52 28° SE
H-2A R/B 2.9 01:19:07 10° N 01:22:07 36° N 01:22:07 36° N
Meteor 1-24 Rocket 3.6 01:19:49 10° S 01:25:20 79° E 01:30:43 10° NNE
SJ 16-02 3.6 01:33:00 14° S 01:33:00 14° S 01:33:35 10° S
Meteor 2-20 4.4 01:26:01 10° N 01:32:12 85° E 01:38:17 10° S
ARGOS 3.6 01:27:59 10° NNE 01:33:22 61° E 01:38:43 10° S
SL-8 R/B 3.5 01:34:01 85° NW 01:34:04 86° NNW 01:38:50 10° ENE
Thor Agena Rocket 3.5 01:31:40 10° NNE 01:36:54 81° ESE 01:42:01 10° SSW
USA 281 3.2 01:31:19 10° SSE 01:37:51 80° ENE 01:44:27 10° NNW
NOSS 3-1 (A) 4.2 01:36:16 38° WNW 01:39:19 58° WSW 01:48:12 10° SSE
Cosmos 1980 Rocket 2.2 01:41:31 52° WNW 01:41:40 52° WNW 01:47:10 10° NNE
SL-08 ROCKET BODY 4.4 01:40:51 28° SW 01:43:55 55° W 01:49:43 10° N
Cosmos 2369 3.6 01:43:02 35° SW 01:45:27 70° WNW 01:51:07 10° NNE
ATLAS 3B R/B 2.9 01:40:33 22° NW 01:46:05 84° WSW 01:53:42 10° SSE
IRS-1D 3.9 01:45:14 10° N 01:49:08 41° NW 01:49:08 41° NW
Atlas Centaur 2 3.4 01:50:16 15° S 01:50:28 15° S 01:52:45 10° SSE
Meteor 2-5 Rocket 3.7 01:47:25 10° SSW 01:53:08 62° WNW 01:58:46 10° N
Cosmos 1378 Rocket 3.8 01:55:15 10° S 01:59:38 70° E 02:04:01 10° NNE
Cosmos 1697 Rocket 4.2 02:00:59 19° NNW 02:00:59 19° NNW 02:03:52 10° N
Cosmos 44 Rocket 4.4 02:01:27 25° SW 02:01:27 25° SW 02:04:14 10° S
ATLAS 2AS CENTAUR R/B 3.6 01:59:55 27° WNW 02:01:18 29° NW 02:07:16 10° NNE
Cosmos 1674 Rocket 4.2 01:57:21 10° S 02:01:33 57° E 02:05:48 10° NNE
Cosmos 1992 Rocket 3.9 01:56:41 10° SSW 02:01:54 83° WNW 02:07:10 10° NNE
Cosmos 371 Rocket 3.2 01:59:24 14° NNW 02:03:37 88° ENE 02:08:26 10° SSE
ARIANE 6 FM1 Upper Stage 3.0 02:03:22 12° SSW 02:07:14 67° SE 02:11:28 10° NE
ATLAS CENTAUR R/B 3.3 02:09:28 13° NNW 02:09:28 13° NNW 02:10:20 10° N
Okean 2 Rocket 3.8 02:03:36 10° N 02:08:01 56° E 02:12:22 10° SSE
COSMO-SKYMED 1 2.8 02:03:56 10° SSE 02:08:14 69° ENE 02:12:34 10° N
EXPRESS MD2 3.4 02:06:20 23° SW 02:08:33 55° SSE 02:11:14 10° ENE
Cosmos 2315 Rocket 4.0 02:03:12 10° NNW 02:09:28 61° W 02:15:41 10° S
USA 59 Rocket 1.2 02:07:20 14° NNW 02:10:27 42° NE 02:15:31 10° ESE
Cosmos 1818 4.2 02:10:40 30° WNW 02:12:00 34° NW 02:16:59 10° NNE
Lacrosse 4 Rocket 1.7 02:13:10 36° WNW 02:14:11 44° WSW 02:18:02 10° S
Cosmos 1939 Rocket 3.6 02:11:34 10° N 02:13:58 29° NW 02:13:58 29° NW
SOZ 4.2 02:14:39 54° WSW 02:15:09 80° NW 02:17:16 10° NE
Cosmos 2242 Rocket 4.3 02:16:32 31° W 02:16:51 31° WNW 02:20:50 10° NNW
Cosmos 2098 Rocket 4.1 02:14:09 10° N 02:17:35 35° ENE 02:20:31 10° SE
Cosmos 2237 4.2 02:15:11 10° SSW 02:20:52 87° WNW 02:26:36 10° NNE
SJ-11-01 4.4 02:16:40 10° NNE 02:21:20 77° ESE 02:25:59 10° S
Cosmos 2263 Rocket 2.7 02:18:15 21° NW 02:21:24 38° WSW 02:26:30 10° S
Cosmos 2344 3.8 02:15:50 10° SSW 02:23:47 73° ESE 02:30:59 10° NE
Cosmos 2082 4.0 02:21:08 15° NW 02:25:33 44° WSW 02:30:52 10° S
CBERS-1 4.0 02:23:00 10° N 02:28:02 57° WNW 02:33:01 10° SSW
Cosmos 2360 Rocket 3.5 02:23:38 10° S 02:28:52 42° ESE 02:34:08 10° NE
Cosmos 2227 Rocket 4.1 02:32:00 11° WSW 02:32:00 11° WSW 02:32:18 10° WSW
Cosmos 1244 Rocket 4.5 02:30:52 10° SSW 02:37:10 75° W 02:43:33 10° N
NOSS 2-1 (E) 3.9 02:34:05 11° NNW 02:37:59 70° NE 02:43:31 10° SE
SL-16 R/B 2.1 02:35:10 10° SSW 02:40:49 76° WNW 02:46:31 10° NNE
Cosmos 2151 Rocket 3.7 02:36:48 10° NNW 02:41:09 54° W 02:45:28 10° S
USA 229 DEB 4.1 02:35:07 10° NW 02:42:41 69° WSW 02:50:49 10° SSE
USA 229 4.1 02:35:15 10° NW 02:42:48 70° WSW 02:50:54 10° SSE
Cosmos 1437 Rocket 3.1 02:40:17 10° SW 02:43:34 35° WNW 02:46:55 10° N
Gbstr 26 Del rocket 3.6 02:40:13 16° W 02:43:45 52° NNW 02:49:13 10° NE
ADEOS Rocket 4.2 02:36:47 10° NNE 02:43:45 52° E 02:50:00 10° S
SL-08 RB Rocket 4.3 02:43:03 10° N 02:47:10 33° WNW 02:51:16 10° SW
Okean 1 Rocket 3.0 02:45:30 10° NNW 02:49:58 75° W 02:54:24 10° S
Cosmos 2084 Rocket 3.7 02:46:53 10° SW 02:51:05 47° NW 02:55:11 10° NNE
Cosmos 304 Rocket 4.4 02:49:29 10° NW 02:53:44 33° WSW 02:57:58 10° SSW
Cosmos 1484 Rocket 4.2 02:52:08 10° NNW 02:54:13 15° WNW 02:56:16 10° WSW
SKYMED 2 4.2 02:52:26 10° SSW 02:56:23 34° W 03:00:22 10° NNW
USA 215 3.3 02:50:03 10° NE 02:56:38 85° NW 03:03:09 10° SW
Cosmos 1606 2.8 02:53:44 10° N 02:57:05 64° E 03:00:25 10° SSE
DELTA 2 R/B (1) 3.9 02:55:12 11° W 03:00:27 58° SSW 03:05:54 10° ESE
CZ-2D R/B 2.9 03:01:43 10° N 03:05:13 72° WNW 03:08:43 10° SSW
Cosmos 2333 Rocket 2.3 03:00:40 10° SSW 03:06:23 86° ESE 03:12:06 10° NNE
CZ-2D R/B 3.5 03:02:40 10° NNE 03:06:36 79° E 03:10:37 10° S
BREEZE-M DEB (TANK) 3.7 02:59:28 10° W 03:08:46 40° NNW 03:11:57 10° NE
SJ-12 3.9 03:06:30 10° N 03:10:24 57° WNW 03:14:15 10° SSW
Cosmos 2278 4.2 03:06:40 10° SW 03:11:52 37° WNW 03:17:06 10° N
ARGOS 4.4 03:09:21 10° NNW 03:13:06 19° WNW 03:16:51 10° WSW
ARIANE 5 R/B 2.7 03:09:25 10° N 03:14:20 52° WNW 03:19:17 10° SW
SL-8 R/B 4.4 03:12:22 10° WNW 03:16:50 40° N 03:21:20 10° ENE
